Sioux City, IA

8:40 AM CDT on May 26, 2017 (GMT -0500)
Sioux Gateway

Weather History for KSUX - August, 2014

Change the Weather History Date:

Thursday, August 14, 2014

  Actual Average Record
Temperature  
Mean Temperature 70 °F 73 °F  
Max Temperature 80 °F 84 °F 100 °F (1988)
Min Temperature 59 °F 62 °F 43 °F (2004)
Degree Days  
Heating Degree Days 0 0  
Month to date heating degree days 0 0  
Since 1 June heating degree days 26 30  
Since 1 July heating degree days 6 3  
Cooling Degree Days 5 8  
Month to date cooling degree days 94 119  
Year to date cooling degree days 603 664  
Since 1 June cooling degree days 482 600  
Growing Degree Days 20 (Base 50)    
Moisture  
Dew Point 62 °F    
Average Humidity 72    
Maximum Humidity 93    
Minimum Humidity 51    
Precipitation  
Precipitation T in 0.11 in 2.62 in (1951)
Month to date precipitation 3.59 1.43  
Year to date precipitation 29.10 18.74  
Snow  
Snow 0.00 in 0.00 in 0.00 in ()
Month to date snowfall 0.0 0.0  
Since 1 June snowfall 0.0 0.0  
Since 1 July snowfall 0.0 0.0  
Snow Depth 0.00 in    
Sea Level Pressure  
Sea Level Pressure 30.02 in    
Wind  
Wind Speed 7 mph (SE)    
Max Wind Speed 13 mph    
Max Gust Speed 19 mph    
Visibility 10 miles    
Events      
T = Trace of Precipitation, MM = Missing Value Source: NWS Daily Summary

Daily Weather History Graph

Daily Weather History Graph

Search for Another Location

Airport or City:

Trip Planner

Search our weather history database for the weather conditions in past years. The results will help you decide how hot, cold, wet, or windy it might be!

Date:

Astronomy

Aug. 14, 2014 Rise Set
Actual Time 6:31 AM CDT 8:28 PM CDT
Civil Twilight 6:01 AM CDT 8:58 PM CDT
Nautical Twilight 5:23 AM CDT 9:35 PM CDT
Astronomical Twilight 4:43 AM CDT 10:15 PM CDT
Moon 10:44 PM CDT (8/14) 11:16 AM CDT (8/14)
Length of Visible Light 14h 57m
Length of Day
13h 56m
Waning Gibbous, 79% of the Moon is Illuminated
Aug 14
Waning Gibbous
Aug 17
Last Quarter
Aug 25
New
Sep 2
First Quarter
Sep 8
Full

Hourly Weather History & Observations

Time (CDT) Temp. Heat Index Dew Point Humidity Pressure Visibility Wind Dir Wind Speed Gust Speed Precip Events Conditions
12:52 AM 63.0 °F - 60.1 °F 90% 30.07 in 10.0 mi ESE 5.8 mph - N/A   Clear
1:52 AM 62.1 °F - 59.0 °F 90% 30.07 in 10.0 mi ESE 5.8 mph - N/A   Clear
2:52 AM 62.1 °F - 57.9 °F 86% 30.06 in 10.0 mi ESE 5.8 mph - N/A   Clear
3:52 AM 60.1 °F - 57.9 °F 93% 30.06 in 10.0 mi ESE 5.8 mph - N/A   Clear
4:52 AM 59.0 °F - 57.2 °F 94% 30.07 in 10.0 mi ESE 5.8 mph - N/A   Clear
5:52 AM 60.1 °F - 57.0 °F 90% 30.06 in 10.0 mi ESE 6.9 mph - N/A   Mostly Cloudy
6:52 AM 60.1 °F - 57.0 °F 90% 30.06 in 10.0 mi ESE 5.8 mph - N/A   Partly Cloudy
7:52 AM 62.1 °F - 59.0 °F 90% 30.07 in 10.0 mi ESE 4.6 mph - N/A   Clear
8:52 AM 64.9 °F - 61.0 °F 87% 30.08 in 10.0 mi ESE 6.9 mph - N/A   Clear
9:52 AM 69.1 °F - 62.1 °F 78% 30.07 in 10.0 mi SE 8.1 mph - N/A   Clear
10:52 AM 73.9 °F - 63.0 °F 68% 30.07 in 10.0 mi SE 5.8 mph - N/A   Clear
11:52 AM 75.0 °F - 63.0 °F 66% 30.06 in 10.0 mi SE 6.9 mph - N/A   Clear
12:52 PM 78.1 °F - 63.0 °F 60% 30.05 in 10.0 mi SE 9.2 mph - N/A   Partly Cloudy
1:52 PM 79.0 °F - 62.1 °F 56% 30.03 in 10.0 mi SE 10.4 mph - N/A   Clear
2:52 PM 80.1 °F 80.9 °F 60.1 °F 50% 30.02 in 10.0 mi SE 9.2 mph - N/A   Clear
3:52 PM 80.1 °F 81.5 °F 63.0 °F 56% 30.01 in 10.0 mi SE 10.4 mph - N/A   Clear
4:52 PM 79.0 °F - 62.1 °F 56% 29.99 in 10.0 mi SSE 10.4 mph - N/A   Clear
5:52 PM 78.1 °F - 64.0 °F 62% 29.97 in 10.0 mi SSE 8.1 mph - N/A   Clear
6:52 PM 75.9 °F - 64.9 °F 69% 29.95 in 10.0 mi SE 8.1 mph - N/A   Partly Cloudy
7:52 PM 75.0 °F - 64.9 °F 71% 29.94 in 10.0 mi SE 5.8 mph - N/A   Clear
8:52 PM 72.0 °F - 66.0 °F 81% 29.94 in 10.0 mi SSE 4.6 mph - N/A   Clear
9:52 PM 71.1 °F - 66.0 °F 84% 29.96 in 10.0 mi ESE 6.9 mph - N/A   Clear
10:52 PM 71.1 °F - 66.0 °F 84% 29.94 in 10.0 mi SE 6.9 mph - N/A   Clear
11:52 PM 71.1 °F - 64.9 °F 81% 29.93 in 10.0 mi SSE 5.8 mph - N/A   Mostly Cloudy